• In Austria
  • List of Countries
  • For 7 days
  • Water Temperature
  • Satellite Maps
  • Weather Map
  • News
  • Weather Widgets
  • user-avatar
    Login

    Hourly Weather Blois

    Today, 23 January, Tuesday

    Time Temperature Precipitation Wind Pressure Humidity
    00:00 +9°C° 0 mm 2 mps 760 mmHg 81%
    01:00 +8°C° 0 mm 2 mps 760 mmHg 84%
    02:00 +8°C° 0 mm 2 mps 760 mmHg 86%
    03:00 +7°C° 0 mm 2 mps 761 mmHg 89%
    04:00 +7°C° 0 mm 3 mps 761 mmHg 91%
    05:00 +7°C° 0 mm 3 mps 760 mmHg 93%
    06:00 +5°C° 0 mm 3 mps 760 mmHg 95%
    07:00 +7°C° 0 mm 3 mps 760 mmHg 95%
    08:00 +6°C° 0 mm 4 mps 760 mmHg 94%
    09:00 +7°C° 0 mm 5 mps 761 mmHg 94%
    10:00 +7°C° 0.1 mm 5 mps 761 mmHg 93%
    11:00 +8°C° 0.1 mm 5 mps 761 mmHg 92%
    12:00 +9°C° 0.1 mm 5 mps 760 mmHg 91%
    13:00 +10°C° 0 mm 5 mps 760 mmHg 90%
    14:00 +10°C° 0 mm 5 mps 760 mmHg 90%
    15:00 +12°C° 0 mm 4 mps 760 mmHg 89%
    16:00 +12°C° 0 mm 4 mps 760 mmHg 90%
    17:00 +12°C° 0 mm 5 mps 760 mmHg 91%
    18:00 +10°C° 0 mm 5 mps 760 mmHg 92%
    19:00 +10°C° 0 mm 5 mps 760 mmHg 93%
    20:00 +10°C° 0 mm 5 mps 760 mmHg 93%
    21:00 +10°C° 0 mm 5 mps 760 mmHg 94%
    22:00 +10°C° 0 mm 5 mps 760 mmHg 94%
    23:00 +10°C° 0 mm 5 mps 760 mmHg 94%

    Tomorrow, 24 January, Wednesday

    Time Temperature Precipitation Wind Pressure Humidity
    00:00 +10°C° 0 mm 6 mps 760 mmHg 94%
    01:00 +10°C° 0.1 mm 6 mps 760 mmHg 94%
    02:00 +10°C° 0.1 mm 6 mps 760 mmHg 93%
    03:00 +10°C° 0.1 mm 6 mps 759 mmHg 93%
    04:00 +10°C° 0 mm 6 mps 759 mmHg 93%
    05:00 +10°C° 0 mm 6 mps 759 mmHg 92%
    06:00 +9°C° 0 mm 6 mps 758 mmHg 92%
    07:00 +10°C° 0 mm 6 mps 758 mmHg 91%
    08:00 +10°C° 0 mm 6 mps 758 mmHg 90%
    09:00 +10°C° 0 mm 6 mps 758 mmHg 90%
    10:00 +10°C° 0 mm 6 mps 758 mmHg 87%
    11:00 +11°C° 0 mm 7 mps 757 mmHg 84%
    12:00 +12°C° 0 mm 7 mps 756 mmHg 82%
    13:00 +12°C° 0 mm 7 mps 756 mmHg 79%
    14:00 +14°C° 0 mm 7 mps 755 mmHg 76%
    15:00 +14°C° 0 mm 7 mps 754 mmHg 73%
    16:00 +12°C° 0 mm 7 mps 754 mmHg 76%
    17:00 +11°C° 0 mm 7 mps 754 mmHg 79%
    18:00 +10°C° 0 mm 7 mps 754 mmHg 83%
    19:00 +10°C° 0.1 mm 7 mps 754 mmHg 83%
    20:00 +10°C° 0.1 mm 7 mps 754 mmHg 83%
    21:00 +10°C° 0.1 mm 8 mps 754 mmHg 83%
    22:00 +10°C° 0.2 mm 8 mps 753 mmHg 83%
    23:00 +10°C° 0.2 mm 7 mps 753 mmHg 83%

    Day after tomorrow, 25 January, Thursday

    Time Temperature Precipitation Wind Pressure Humidity
    00:00 +10°C° 0.2 mm 7 mps 753 mmHg 82%
    01:00 +10°C° 0.8 mm 7 mps 753 mmHg 83%
    02:00 +9°C° 0.8 mm 6 mps 753 mmHg 84%
    03:00 +9°C° 0.8 mm 5 mps 752 mmHg 85%
    04:00 +8°C° 1.2 mm 5 mps 752 mmHg 87%
    05:00 +8°C° 1.2 mm 4 mps 752 mmHg 89%
    06:00 +8°C° 1.2 mm 3 mps 752 mmHg 91%
    07:00 +8°C° 1.3 mm 3 mps 752 mmHg 91%
    08:00 +7°C° 1.3 mm 4 mps 752 mmHg 91%
    09:00 +6°C° 1.3 mm 4 mps 752 mmHg 91%
    10:00 +7°C° 0.3 mm 4 mps 753 mmHg 88%
    11:00 +7°C° 0.3 mm 4 mps 753 mmHg 85%
    12:00 +7°C° 0.3 mm 5 mps 753 mmHg 82%
    13:00 +7°C° 0.3 mm 5 mps 753 mmHg 82%
    14:00 +8°C° 0.3 mm 5 mps 753 mmHg 81%
    15:00 +8°C° 0.3 mm 5 mps 752 mmHg 81%
    16:00 +7°C° 0.2 mm 4 mps 753 mmHg 83%
    17:00 +6°C° 0.2 mm 4 mps 753 mmHg 86%
    18:00 +7°C° 0.2 mm 3 mps 753 mmHg 88%
    19:00 +7°C° 0 mm 3 mps 753 mmHg 89%
    20:00 +5°C° 0 mm 3 mps 753 mmHg 90%
    21:00 +5°C° 0 mm 3 mps 754 mmHg 91%
    22:00 +4°C° 0 mm 3 mps 754 mmHg 91%
    23:00 +4°C° 0 mm 3 mps 754 mmHg 91%

    26 January, Friday

    Time Temperature Precipitation Wind Pressure Humidity
    00:00 +4°C° 0 mm 2 mps 754 mmHg 91%
    01:00 +4°C° 0 mm 2 mps 754 mmHg 92%
    02:00 +4°C° 0 mm 2 mps 754 mmHg 92%
    03:00 +4°C° 0 mm 2 mps 754 mmHg 93%
    04:00 +3°C° 0 mm 2 mps 754 mmHg 93%
    05:00 +2°C° 0 mm 3 mps 755 mmHg 93%
    06:00 +2°C° 0 mm 3 mps 755 mmHg 94%
    07:00 +2°C° 0 mm 3 mps 755 mmHg 92%
    08:00 +3°C° 0 mm 3 mps 756 mmHg 90%
    09:00 +3°C° 0 mm 4 mps 756 mmHg 88%
    10:00 +4°C° 0 mm 4 mps 756 mmHg 84%
    11:00 +6°C° 0 mm 4 mps 756 mmHg 80%
    12:00 +7°C° 0 mm 4 mps 757 mmHg 76%
    13:00 +7°C° 0 mm 4 mps 757 mmHg 74%
    14:00 +7°C° 0 mm 4 mps 757 mmHg 71%
    15:00 +7°C° 0 mm 4 mps 757 mmHg 68%
    16:00 +7°C° 0 mm 3 mps 758 mmHg 73%
    17:00 +6°C° 0 mm 2 mps 758 mmHg 79%
    18:00 +5°C° 0 mm 2 mps 759 mmHg 84%
    19:00 +4°C° 0 mm 2 mps 760 mmHg 86%
    20:00 +4°C° 0 mm 2 mps 761 mmHg 88%
    21:00 +4°C° 0 mm 2 mps 761 mmHg 90%
    22:00 +3°C° 0 mm 2 mps 762 mmHg 91%
    23:00 +3°C° 0 mm 2 mps 762 mmHg 92%

    27 January, Saturday

    Time Temperature Precipitation Wind Pressure Humidity
    00:00 +3°C° 0 mm 2 mps 763 mmHg 92%
    01:00 +2°C° 0 mm 2 mps 763 mmHg 93%
    02:00 +2°C° 0 mm 2 mps 763 mmHg 94%
    03:00 +2°C° 0 mm 2 mps 764 mmHg 95%
    04:00 +2°C° 0 mm 2 mps 764 mmHg 95%
    05:00 +2°C° 0 mm 2 mps 764 mmHg 95%
    06:00 +1°C° 0 mm 2 mps 765 mmHg 95%
    07:00 +3°C° 0 mm 1 mps 765 mmHg 93%
    08:00 +4°C° 0 mm 1 mps 766 mmHg 91%
    09:00 +3°C° 0 mm 0 mps 766 mmHg 89%
    10:00 +5°C° 0 mm 1 mps 766 mmHg 84%
    11:00 +7°C° 0 mm 1 mps 766 mmHg 78%
    12:00 +7°C° 0 mm 2 mps 766 mmHg 73%
    13:00 +7°C° 0 mm 2 mps 766 mmHg 72%
    14:00 +7°C° 0 mm 2 mps 766 mmHg 71%
    15:00 +8°C° 0 mm 2 mps 766 mmHg 70%
    16:00 +7°C° 0.1 mm 2 mps 766 mmHg 75%
    17:00 +6°C° 0.1 mm 2 mps 766 mmHg 80%
    18:00 +5°C° 0.1 mm 3 mps 766 mmHg 84%
    19:00 +5°C° 0.1 mm 3 mps 766 mmHg 86%
    20:00 +5°C° 0.1 mm 3 mps 766 mmHg 87%
    21:00 +4°C° 0.1 mm 3 mps 766 mmHg 89%
    22:00 +5°C° 0.1 mm 3 mps 766 mmHg 89%
    23:00 +5°C° 0.1 mm 3 mps 766 mmHg 90%

    28 January, Sunday

    Time Temperature Precipitation Wind Pressure Humidity
    00:00 +5°C° 0.1 mm 3 mps 766 mmHg 91%
    01:00 +5°C° 0 mm 3 mps 766 mmHg 92%
    02:00 +5°C° 0 mm 3 mps 766 mmHg 92%
    03:00 +5°C° 0 mm 3 mps 766 mmHg 93%
    04:00 +5°C° 0 mm 3 mps 767 mmHg 94%
    05:00 +5°C° 0 mm 3 mps 767 mmHg 95%
    06:00 +6°C° 0 mm 2 mps 767 mmHg 95%
    07:00 +7°C° 0 mm 2 mps 767 mmHg 95%
    08:00 +7°C° 0 mm 2 mps 768 mmHg 95%
    09:00 +7°C° 0 mm 2 mps 768 mmHg 95%
    10:00 +8°C° 0 mm 2 mps 768 mmHg 93%
    11:00 +9°C° 0 mm 3 mps 768 mmHg 91%
    12:00 +10°C° 0 mm 3 mps 768 mmHg 89%
    13:00 +10°C° 0 mm 2 mps 768 mmHg 89%
    14:00 +10°C° 0 mm 2 mps 768 mmHg 88%
    15:00 +12°C° 0 mm 2 mps 768 mmHg 88%
    16:00 +10°C° 0 mm 2 mps 768 mmHg 90%
    17:00 +10°C° 0 mm 2 mps 768 mmHg 93%
    18:00 +10°C° 0 mm 1 mps 768 mmHg 95%
    19:00 +10°C° 0 mm 1 mps 768 mmHg 96%
    20:00 +10°C° 0 mm 1 mps 769 mmHg 96%
    21:00 +10°C° 0 mm 1 mps 769 mmHg 97%
    22:00 +10°C° 0 mm 1 mps 769 mmHg 97%
    23:00 +10°C° 0 mm 1 mps 769 mmHg 97%
    Show more